Year,Month,Day,Hour,Minute,Value (Times are PST for temperature in C)
2019,08,02,00,00,17.10
2019,08,02,00,01,17.10
2019,08,02,00,02,17.10
2019,08,02,00,03,17.10
2019,08,02,00,04,17.10
2019,08,02,00,05,17.10
2019,08,02,00,06,17.10
2019,08,02,00,07,17.10
2019,08,02,00,08,17.10
2019,08,02,00,09,17.10
2019,08,02,00,10,17.10
2019,08,02,00,11,17.10
2019,08,02,00,12,17.10
2019,08,02,00,13,17.10
2019,08,02,00,14,17.10
2019,08,02,00,15,17.10
2019,08,02,00,16,17.00
2019,08,02,00,17,17.00
2019,08,02,00,18,17.00
2019,08,02,00,19,17.00
2019,08,02,00,20,17.00
2019,08,02,00,21,17.00
2019,08,02,00,22,17.00
2019,08,02,00,23,17.00
2019,08,02,00,24,17.00
2019,08,02,00,25,17.00
2019,08,02,00,26,17.00
2019,08,02,00,27,17.00
2019,08,02,00,28,17.10
2019,08,02,00,29,17.00
2019,08,02,00,30,17.00
2019,08,02,00,31,17.00
2019,08,02,00,32,17.00
2019,08,02,00,33,17.00
2019,08,02,00,34,17.00
2019,08,02,00,35,17.00
2019,08,02,00,36,17.00
2019,08,02,00,37,17.00
2019,08,02,00,38,17.00
2019,08,02,00,39,17.00
2019,08,02,00,40,17.10
2019,08,02,00,41,17.10
2019,08,02,00,42,17.10
2019,08,02,00,43,17.10
2019,08,02,00,44,17.10
2019,08,02,00,45,17.10
2019,08,02,00,46,17.10
2019,08,02,00,47,17.10
2019,08,02,00,48,17.10
2019,08,02,00,49,17.10
2019,08,02,00,50,17.10
2019,08,02,00,51,17.10
2019,08,02,00,52,17.10
2019,08,02,00,53,17.00
2019,08,02,00,54,17.10
2019,08,02,00,55,17.10
2019,08,02,00,56,17.00
2019,08,02,00,57,17.00
2019,08,02,00,58,17.00
2019,08,02,00,59,17.00
2019,08,02,01,00,17.10
2019,08,02,01,01,17.10
2019,08,02,01,02,17.10
2019,08,02,01,03,17.10
2019,08,02,01,04,17.10
2019,08,02,01,05,17.10
2019,08,02,01,06,17.10
2019,08,02,01,07,17.10
2019,08,02,01,08,17.10
2019,08,02,01,09,17.10
2019,08,02,01,10,17.00
2019,08,02,01,11,17.00
2019,08,02,01,12,17.00
2019,08,02,01,13,17.00
2019,08,02,01,14,17.00
2019,08,02,01,15,17.00
2019,08,02,01,16,17.00
2019,08,02,01,17,17.00
2019,08,02,01,18,17.00
2019,08,02,01,19,16.90
2019,08,02,01,20,16.90
2019,08,02,01,21,16.90
2019,08,02,01,22,16.90
2019,08,02,01,23,16.90
2019,08,02,01,24,16.90
2019,08,02,01,25,16.90
2019,08,02,01,26,16.90
2019,08,02,01,27,16.90
2019,08,02,01,28,16.90
2019,08,02,01,29,16.90
2019,08,02,01,30,16.90
2019,08,02,01,31,16.90
2019,08,02,01,32,16.90
2019,08,02,01,33,16.90
2019,08,02,01,34,16.80
2019,08,02,01,35,16.80
2019,08,02,01,36,16.80
2019,08,02,01,37,16.80
2019,08,02,01,38,16.80
2019,08,02,01,39,16.80
2019,08,02,01,40,16.80
2019,08,02,01,41,16.80
2019,08,02,01,42,16.80
2019,08,02,01,43,16.80
2019,08,02,01,44,16.80
2019,08,02,01,45,16.80
2019,08,02,01,46,16.80
2019,08,02,01,47,16.80
2019,08,02,01,48,16.80
2019,08,02,01,49,16.80
2019,08,02,01,50,16.80
2019,08,02,01,51,16.80
2019,08,02,01,52,16.80
2019,08,02,01,53,16.80
2019,08,02,01,54,16.80
2019,08,02,01,55,16.70
2019,08,02,01,56,16.70
2019,08,02,01,57,16.70
2019,08,02,01,58,16.70
2019,08,02,01,59,16.70
2019,08,02,02,00,16.70
2019,08,02,02,01,16.70
2019,08,02,02,02,16.70
2019,08,02,02,03,16.70
2019,08,02,02,04,16.70
2019,08,02,02,05,16.70
2019,08,02,02,06,16.70
2019,08,02,02,07,16.70
2019,08,02,02,08,16.70
2019,08,02,02,09,16.70
2019,08,02,02,10,16.70
2019,08,02,02,11,16.70
2019,08,02,02,12,16.70
2019,08,02,02,13,16.70
2019,08,02,02,14,16.70
2019,08,02,02,15,16.70
2019,08,02,02,16,16.70
2019,08,02,02,17,16.70
2019,08,02,02,18,16.70
2019,08,02,02,19,16.70
2019,08,02,02,20,16.60
2019,08,02,02,21,16.60
2019,08,02,02,22,16.70
2019,08,02,02,23,16.70
2019,08,02,02,24,16.70
2019,08,02,02,25,16.70
2019,08,02,02,26,16.70
2019,08,02,02,27,16.70
2019,08,02,02,28,16.70
2019,08,02,02,29,16.70
2019,08,02,02,30,16.70
2019,08,02,02,31,16.70
2019,08,02,02,32,16.70
2019,08,02,02,33,16.70
2019,08,02,02,34,16.70
2019,08,02,02,35,16.70
2019,08,02,02,36,16.70
2019,08,02,02,37,16.70
2019,08,02,02,38,16.70
2019,08,02,02,39,16.70
2019,08,02,02,40,16.70
2019,08,02,02,41,16.70
2019,08,02,02,42,16.60
2019,08,02,02,43,16.60
2019,08,02,02,44,16.60
2019,08,02,02,45,16.60
2019,08,02,02,46,16.60
2019,08,02,02,47,16.60
2019,08,02,02,48,16.60
2019,08,02,02,49,16.60
2019,08,02,02,50,16.60
2019,08,02,02,51,16.60
2019,08,02,02,52,16.60
2019,08,02,02,53,16.60
2019,08,02,02,54,16.60
2019,08,02,02,55,16.50
2019,08,02,02,56,16.50
2019,08,02,02,57,16.50
2019,08,02,02,58,16.50
2019,08,02,02,59,16.50
2019,08,02,03,00,16.50
2019,08,02,03,01,16.50
2019,08,02,03,02,16.50
2019,08,02,03,03,16.40
2019,08,02,03,04,16.40
2019,08,02,03,05,16.40
2019,08,02,03,06,16.40
2019,08,02,03,07,16.40
2019,08,02,03,08,16.40
2019,08,02,03,09,16.40
2019,08,02,03,10,16.30
2019,08,02,03,11,16.30
2019,08,02,03,12,16.30
2019,08,02,03,13,16.20
2019,08,02,03,14,16.20
2019,08,02,03,15,16.20
2019,08,02,03,16,16.10
2019,08,02,03,17,16.10
2019,08,02,03,18,16.10
2019,08,02,03,19,16.00
2019,08,02,03,20,16.00
2019,08,02,03,21,15.90
2019,08,02,03,22,15.90
2019,08,02,03,23,15.90
2019,08,02,03,24,15.80
2019,08,02,03,25,15.80
2019,08,02,03,26,15.70
2019,08,02,03,27,15.70
2019,08,02,03,28,15.60
2019,08,02,03,29,15.60
2019,08,02,03,30,15.50
2019,08,02,03,31,15.50
2019,08,02,03,32,15.50
2019,08,02,03,33,15.40
2019,08,02,03,34,15.40
2019,08,02,03,35,15.30
2019,08,02,03,36,15.30
2019,08,02,03,37,15.30
2019,08,02,03,38,15.30
2019,08,02,03,39,15.20
2019,08,02,03,40,15.20
2019,08,02,03,41,15.20
2019,08,02,03,42,15.20
2019,08,02,03,43,15.10
2019,08,02,03,44,15.10
2019,08,02,03,45,15.10
2019,08,02,03,46,15.10
2019,08,02,03,47,15.10
2019,08,02,03,48,15.10
2019,08,02,03,49,15.00
2019,08,02,03,50,15.00
2019,08,02,03,51,15.00
2019,08,02,03,52,15.00
2019,08,02,03,53,15.00
2019,08,02,03,54,15.00
2019,08,02,03,55,14.90
2019,08,02,03,56,14.90
2019,08,02,03,57,14.90
2019,08,02,03,58,14.90
2019,08,02,03,59,14.90
2019,08,02,04,00,14.90
2019,08,02,04,01,14.90
2019,08,02,04,02,14.90
2019,08,02,04,03,14.90
2019,08,02,04,04,14.90
2019,08,02,04,05,14.90
2019,08,02,04,06,14.90
2019,08,02,04,07,14.90
2019,08,02,04,08,14.90
2019,08,02,04,09,14.90
2019,08,02,04,10,14.90
2019,08,02,04,11,14.90
2019,08,02,04,12,14.90
2019,08,02,04,13,14.90
2019,08,02,04,14,14.90
2019,08,02,04,15,14.80
2019,08,02,04,16,14.80
2019,08,02,04,17,14.80
2019,08,02,04,18,14.80
2019,08,02,04,19,14.80
2019,08,02,04,20,14.70
2019,08,02,04,21,14.70
2019,08,02,04,22,14.70
2019,08,02,04,23,14.70
2019,08,02,04,24,14.70
2019,08,02,04,25,14.60
2019,08,02,04,26,14.60
2019,08,02,04,27,14.60
2019,08,02,04,28,14.60
2019,08,02,04,29,14.60
2019,08,02,04,30,14.60
2019,08,02,04,31,14.60
2019,08,02,04,32,14.50
2019,08,02,04,33,14.50
2019,08,02,04,34,14.50
2019,08,02,04,35,14.50
2019,08,02,04,36,14.50
2019,08,02,04,37,14.50
2019,08,02,04,38,14.40
2019,08,02,04,39,14.40
2019,08,02,04,40,14.40
2019,08,02,04,41,14.40
2019,08,02,04,42,14.40
2019,08,02,04,43,14.40
2019,08,02,04,44,14.40
2019,08,02,04,45,14.40
2019,08,02,04,46,14.40
2019,08,02,04,47,14.40
2019,08,02,04,48,14.30
2019,08,02,04,49,14.30
2019,08,02,04,50,14.30
2019,08,02,04,51,14.30
2019,08,02,04,52,14.30
2019,08,02,04,53,14.30
2019,08,02,04,54,14.30
2019,08,02,04,55,14.30
2019,08,02,04,56,14.30
2019,08,02,04,57,14.30
2019,08,02,04,58,14.30
2019,08,02,04,59,14.30
2019,08,02,05,00,14.30
2019,08,02,05,01,14.30
2019,08,02,05,02,14.40
2019,08,02,05,03,14.40
2019,08,02,05,04,14.40
2019,08,02,05,05,14.40
2019,08,02,05,06,14.40
2019,08,02,05,07,14.50
2019,08,02,05,08,14.50
2019,08,02,05,09,14.50
2019,08,02,05,10,14.60
2019,08,02,05,11,14.60
2019,08,02,05,12,14.60
2019,08,02,05,13,14.60
2019,08,02,05,14,14.60
2019,08,02,05,15,14.60
2019,08,02,05,16,14.70
2019,08,02,05,17,14.70
2019,08,02,05,18,14.70
2019,08,02,05,19,14.70
2019,08,02,05,20,14.70
2019,08,02,05,21,14.70
2019,08,02,05,22,14.70
2019,08,02,05,23,14.70
2019,08,02,05,24,14.70
2019,08,02,05,25,14.70
2019,08,02,05,26,14.70
2019,08,02,05,27,14.70
2019,08,02,05,28,14.70
2019,08,02,05,29,14.70
2019,08,02,05,30,14.70
2019,08,02,05,31,14.70
2019,08,02,05,32,14.70
2019,08,02,05,33,14.70
2019,08,02,05,34,14.70
2019,08,02,05,35,14.70
2019,08,02,05,36,14.70
2019,08,02,05,37,14.70
2019,08,02,05,38,14.70
2019,08,02,05,39,14.80
2019,08,02,05,40,14.80
2019,08,02,05,41,14.80
2019,08,02,05,42,14.90
2019,08,02,05,43,14.90
2019,08,02,05,44,14.90
2019,08,02,05,45,14.90
2019,08,02,05,46,14.90
2019,08,02,05,47,14.90
2019,08,02,05,48,14.90
2019,08,02,05,49,14.90
2019,08,02,05,50,14.90
2019,08,02,05,51,14.90
2019,08,02,05,52,14.90
2019,08,02,05,53,14.90
2019,08,02,05,54,14.90
2019,08,02,05,55,14.90
2019,08,02,05,56,14.90
2019,08,02,05,57,14.90
2019,08,02,05,58,14.90
2019,08,02,05,59,14.90
2019,08,02,06,00,14.90
2019,08,02,06,01,14.90
2019,08,02,06,02,14.90
2019,08,02,06,03,14.90
2019,08,02,06,04,14.90
2019,08,02,06,05,14.90
2019,08,02,06,06,14.90
2019,08,02,06,07,14.90
2019,08,02,06,08,14.90
2019,08,02,06,09,14.90
2019,08,02,06,10,14.90
2019,08,02,06,11,14.90
2019,08,02,06,12,14.90
2019,08,02,06,13,14.90
2019,08,02,06,14,14.90
2019,08,02,06,15,14.90
2019,08,02,06,16,15.00
2019,08,02,06,17,15.00
2019,08,02,06,18,15.00
2019,08,02,06,19,15.00
2019,08,02,06,20,15.10
2019,08,02,06,21,15.00
2019,08,02,06,22,15.00
2019,08,02,06,23,15.00
2019,08,02,06,24,15.00
2019,08,02,06,25,15.00
2019,08,02,06,26,15.10
2019,08,02,06,27,15.10
2019,08,02,06,28,15.10
2019,08,02,06,29,15.10
2019,08,02,06,30,15.20
2019,08,02,06,31,15.20
2019,08,02,06,32,15.20
2019,08,02,06,33,15.20
2019,08,02,06,34,15.20
2019,08,02,06,35,15.30
2019,08,02,06,36,15.30
2019,08,02,06,37,15.30
2019,08,02,06,38,15.30
2019,08,02,06,39,15.30
2019,08,02,06,40,15.30
2019,08,02,06,41,15.30
2019,08,02,06,42,15.30
2019,08,02,06,43,15.30
2019,08,02,06,44,15.30
2019,08,02,06,45,15.30
2019,08,02,06,46,15.30
2019,08,02,06,47,15.30
2019,08,02,06,48,15.30
2019,08,02,06,49,15.30
2019,08,02,06,50,15.30
2019,08,02,06,51,15.30
2019,08,02,06,52,15.40
2019,08,02,06,53,15.40
2019,08,02,06,54,15.40
2019,08,02,06,55,15.40
2019,08,02,06,56,15.40
2019,08,02,06,57,15.40
2019,08,02,06,58,15.50
2019,08,02,06,59,15.50
2019,08,02,07,00,15.60
2019,08,02,07,01,15.60
2019,08,02,07,02,15.60
2019,08,02,07,03,15.60
2019,08,02,07,04,15.60
2019,08,02,07,05,15.60
2019,08,02,07,06,15.60
2019,08,02,07,07,15.60
2019,08,02,07,08,15.60
2019,08,02,07,09,15.70
2019,08,02,07,10,15.70
2019,08,02,07,11,15.70
2019,08,02,07,12,15.80
2019,08,02,07,13,15.80
2019,08,02,07,14,15.80
2019,08,02,07,15,15.90
2019,08,02,07,16,15.90
2019,08,02,07,17,16.00
2019,08,02,07,18,16.00
2019,08,02,07,19,16.00
2019,08,02,07,20,16.10
2019,08,02,07,21,16.10
2019,08,02,07,22,16.20
2019,08,02,07,23,16.20
2019,08,02,07,24,16.20
2019,08,02,07,25,16.30
2019,08,02,07,26,16.30
2019,08,02,07,27,16.40
2019,08,02,07,28,16.40
2019,08,02,07,29,16.50
2019,08,02,07,30,16.50
2019,08,02,07,31,16.60
2019,08,02,07,32,16.60
2019,08,02,07,33,16.70
2019,08,02,07,34,16.80
2019,08,02,07,35,16.80
2019,08,02,07,36,16.90
2019,08,02,07,37,16.90
2019,08,02,07,38,16.90
2019,08,02,07,39,16.90
2019,08,02,07,40,17.00
2019,08,02,07,41,17.00
2019,08,02,07,42,17.10
2019,08,02,07,43,17.10
2019,08,02,07,44,17.20
2019,08,02,07,45,17.20
2019,08,02,07,46,17.30
2019,08,02,07,47,17.30
2019,08,02,07,48,17.40
2019,08,02,07,49,17.50
2019,08,02,07,50,17.50
2019,08,02,07,51,17.60
2019,08,02,07,52,17.70
2019,08,02,07,53,17.70
2019,08,02,07,54,17.70
2019,08,02,07,55,17.70
2019,08,02,07,56,17.70
2019,08,02,07,57,17.80
2019,08,02,07,58,17.80
2019,08,02,07,59,17.80
2019,08,02,08,00,17.90
2019,08,02,08,01,17.90
2019,08,02,08,02,18.00
2019,08,02,08,03,18.00
2019,08,02,08,04,18.10
2019,08,02,08,05,18.10
2019,08,02,08,06,18.20
2019,08,02,08,07,18.10
2019,08,02,08,08,18.10
2019,08,02,08,09,18.20
2019,08,02,08,10,18.20
2019,08,02,08,11,18.20
2019,08,02,08,12,18.20
2019,08,02,08,13,18.30
2019,08,02,08,14,18.30
2019,08,02,08,15,18.30
2019,08,02,08,16,18.30
2019,08,02,08,17,18.30
2019,08,02,08,18,18.30
2019,08,02,08,19,18.40
2019,08,02,08,20,18.40
2019,08,02,08,21,18.40
2019,08,02,08,22,18.40
2019,08,02,08,23,18.50
2019,08,02,08,24,18.50
2019,08,02,08,25,18.60
2019,08,02,08,26,18.70
2019,08,02,08,27,18.70
2019,08,02,08,28,18.80
2019,08,02,08,29,18.80
2019,08,02,08,30,18.80
2019,08,02,08,31,18.80
2019,08,02,08,32,18.80
2019,08,02,08,33,18.90
2019,08,02,08,34,18.90
2019,08,02,08,35,18.90
2019,08,02,08,36,18.90
2019,08,02,08,37,19.00
2019,08,02,08,38,19.00
2019,08,02,08,39,19.00
2019,08,02,08,40,19.00
2019,08,02,08,41,19.00
2019,08,02,08,42,19.10
2019,08,02,08,43,19.10
2019,08,02,08,44,19.10
2019,08,02,08,45,19.10
2019,08,02,08,46,19.10
2019,08,02,08,47,19.10
2019,08,02,08,48,19.10
2019,08,02,08,49,19.20
2019,08,02,08,50,19.20
2019,08,02,08,51,19.30
2019,08,02,08,52,19.30
2019,08,02,08,53,19.30
2019,08,02,08,54,19.40
2019,08,02,08,55,19.40
2019,08,02,08,56,19.50
2019,08,02,08,57,19.60
2019,08,02,08,58,19.60
2019,08,02,08,59,19.70
2019,08,02,09,00,19.70
2019,08,02,09,01,19.70
2019,08,02,09,02,19.70
2019,08,02,09,03,19.60
2019,08,02,09,04,19.60
2019,08,02,09,05,19.60
2019,08,02,09,06,19.60
2019,08,02,09,07,19.50
2019,08,02,09,08,19.50
2019,08,02,09,09,19.40
2019,08,02,09,10,19.30
2019,08,02,09,11,19.30
2019,08,02,09,12,19.30
2019,08,02,09,13,19.40
2019,08,02,09,14,19.40
2019,08,02,09,15,19.40
2019,08,02,09,16,19.40
2019,08,02,09,17,19.40
2019,08,02,09,18,19.40
2019,08,02,09,19,19.40
2019,08,02,09,20,19.40
2019,08,02,09,21,19.40
2019,08,02,09,22,19.40
2019,08,02,09,23,19.50
2019,08,02,09,24,19.50
2019,08,02,09,25,19.60
2019,08,02,09,26,19.60
2019,08,02,09,27,19.70
2019,08,02,09,28,19.80
2019,08,02,09,29,19.80
2019,08,02,09,30,19.90
2019,08,02,09,31,19.90
2019,08,02,09,32,20.00
2019,08,02,09,33,20.10
2019,08,02,09,34,20.10
2019,08,02,09,35,20.20
2019,08,02,09,36,20.20
2019,08,02,09,37,20.20
2019,08,02,09,38,20.30
2019,08,02,09,39,20.30
2019,08,02,09,40,20.40
2019,08,02,09,41,20.50
2019,08,02,09,42,20.50
2019,08,02,09,43,20.50
2019,08,02,09,44,20.50
2019,08,02,09,45,20.50
2019,08,02,09,46,20.50
2019,08,02,09,47,20.50
2019,08,02,09,48,20.50
2019,08,02,09,49,20.50
2019,08,02,09,50,20.50
2019,08,02,09,51,20.40
2019,08,02,09,52,20.40
2019,08,02,09,53,20.40
2019,08,02,09,54,20.50
2019,08,02,09,55,20.50
2019,08,02,09,56,20.60
2019,08,02,09,57,20.60
2019,08,02,09,58,20.60
2019,08,02,09,59,20.70
2019,08,02,10,00,20.70
2019,08,02,10,01,20.70
2019,08,02,10,02,20.80
2019,08,02,10,03,20.80
2019,08,02,10,04,20.80
2019,08,02,10,05,20.80
2019,08,02,10,06,20.80
2019,08,02,10,07,20.80
2019,08,02,10,08,20.80
2019,08,02,10,09,20.80
2019,08,02,10,10,20.80
2019,08,02,10,11,20.80
2019,08,02,10,12,20.90
2019,08,02,10,13,20.90
2019,08,02,10,14,20.90
2019,08,02,10,15,21.00
2019,08,02,10,16,21.00
2019,08,02,10,17,21.00
2019,08,02,10,18,21.10
2019,08,02,10,19,21.10
2019,08,02,10,20,21.20
2019,08,02,10,21,21.20
2019,08,02,10,22,21.20
2019,08,02,10,23,21.30
2019,08,02,10,24,21.30
2019,08,02,10,25,21.40
2019,08,02,10,26,21.40
2019,08,02,10,27,21.40
2019,08,02,10,28,21.50
2019,08,02,10,29,21.50
2019,08,02,10,30,21.50
2019,08,02,10,31,21.60
2019,08,02,10,32,21.60
2019,08,02,10,33,21.60
2019,08,02,10,34,21.70
2019,08,02,10,35,21.70
2019,08,02,10,36,21.80
2019,08,02,10,37,21.90
2019,08,02,10,38,22.00
2019,08,02,10,39,22.00
2019,08,02,10,40,22.10
2019,08,02,10,41,22.10
2019,08,02,10,42,22.20
2019,08,02,10,43,22.30
2019,08,02,10,44,22.30
2019,08,02,10,45,22.40
2019,08,02,10,46,22.40
2019,08,02,10,47,22.50
2019,08,02,10,48,22.50
2019,08,02,10,49,22.60
2019,08,02,10,50,22.60
2019,08,02,10,51,22.60
2019,08,02,10,52,22.60
2019,08,02,10,53,22.50
2019,08,02,10,54,22.40
2019,08,02,10,55,22.40
2019,08,02,10,56,22.30
2019,08,02,10,57,22.30
2019,08,02,10,58,22.30
2019,08,02,10,59,22.30
2019,08,02,11,00,22.20
2019,08,02,11,01,22.20
2019,08,02,11,02,22.20
2019,08,02,11,03,22.20
2019,08,02,11,04,22.10
2019,08,02,11,05,22.10
2019,08,02,11,06,22.10
2019,08,02,11,07,22.00
2019,08,02,11,08,22.00
2019,08,02,11,09,22.00
2019,08,02,11,10,22.00
2019,08,02,11,11,22.00
2019,08,02,11,12,21.90
2019,08,02,11,13,21.90
2019,08,02,11,14,22.00
2019,08,02,11,15,22.00
2019,08,02,11,16,22.00
2019,08,02,11,17,22.10
2019,08,02,11,18,22.10
2019,08,02,11,19,22.20
2019,08,02,11,20,22.30
2019,08,02,11,21,22.40
2019,08,02,11,22,22.50
2019,08,02,11,23,22.50
2019,08,02,11,24,22.60
2019,08,02,11,25,22.70
2019,08,02,11,26,22.70
2019,08,02,11,27,22.80
2019,08,02,11,28,22.80
2019,08,02,11,29,22.80
2019,08,02,11,30,22.90
2019,08,02,11,31,22.90
2019,08,02,11,32,22.90
2019,08,02,11,33,22.90
2019,08,02,11,34,22.90
2019,08,02,11,35,22.90
2019,08,02,11,36,22.90
2019,08,02,11,37,22.80
2019,08,02,11,38,22.80
2019,08,02,11,39,22.70
2019,08,02,11,40,22.70
2019,08,02,11,41,22.70
2019,08,02,11,42,22.80
2019,08,02,11,43,22.80
2019,08,02,11,44,22.90
2019,08,02,11,45,23.00
2019,08,02,11,46,23.10
2019,08,02,11,47,23.10
2019,08,02,11,48,23.20
2019,08,02,11,49,23.30
2019,08,02,11,50,23.30
2019,08,02,11,51,23.30
2019,08,02,11,52,23.40
2019,08,02,11,53,23.40
2019,08,02,11,54,23.40
2019,08,02,11,55,23.50
2019,08,02,11,56,23.50
2019,08,02,11,57,23.50
2019,08,02,11,58,23.60
2019,08,02,11,59,23.60
2019,08,02,12,00,23.60
2019,08,02,12,01,23.60
2019,08,02,12,02,23.60
2019,08,02,12,03,23.60
2019,08,02,12,04,23.60
2019,08,02,12,05,23.70
2019,08,02,12,06,23.70
2019,08,02,12,07,23.70
2019,08,02,12,08,23.70
2019,08,02,12,09,23.80
2019,08,02,12,10,23.80
2019,08,02,12,11,23.80
2019,08,02,12,12,23.90
2019,08,02,12,13,23.90
2019,08,02,12,14,23.90
2019,08,02,12,15,24.00
2019,08,02,12,16,24.10
2019,08,02,12,17,24.10
2019,08,02,12,18,24.10
2019,08,02,12,19,24.10
2019,08,02,12,20,24.10
2019,08,02,12,21,24.10
2019,08,02,12,22,24.20
2019,08,02,12,23,24.20
2019,08,02,12,24,24.30
2019,08,02,12,25,24.30
2019,08,02,12,26,24.30
2019,08,02,12,27,24.40
2019,08,02,12,28,24.40
2019,08,02,12,29,24.30
2019,08,02,12,30,24.30
2019,08,02,12,31,24.20
2019,08,02,12,32,24.30
2019,08,02,12,33,24.30
2019,08,02,12,34,24.30
2019,08,02,12,35,24.30
2019,08,02,12,36,24.30
2019,08,02,12,37,24.30
2019,08,02,12,38,24.30
2019,08,02,12,39,24.30
2019,08,02,12,40,24.30
2019,08,02,12,41,24.30
2019,08,02,12,42,24.40
2019,08,02,12,43,24.40
2019,08,02,12,44,24.40
2019,08,02,12,45,24.50
2019,08,02,12,46,24.50
2019,08,02,12,47,24.60
2019,08,02,12,48,24.60
2019,08,02,12,49,24.60
2019,08,02,12,50,24.60
2019,08,02,12,51,24.60
2019,08,02,12,52,24.50
2019,08,02,12,53,24.50
2019,08,02,12,54,24.60
2019,08,02,12,55,24.60
2019,08,02,12,56,24.60
2019,08,02,12,57,24.60
2019,08,02,12,58,24.60
2019,08,02,12,59,24.60
2019,08,02,13,00,24.60
2019,08,02,13,01,24.50
2019,08,02,13,02,24.60
2019,08,02,13,03,24.60
2019,08,02,13,04,24.60
2019,08,02,13,05,24.60
2019,08,02,13,06,24.70
2019,08,02,13,07,24.70
2019,08,02,13,08,24.70
2019,08,02,13,09,24.80
2019,08,02,13,10,24.80
2019,08,02,13,11,24.80
2019,08,02,13,12,24.90
2019,08,02,13,13,24.90
2019,08,02,13,14,24.90
2019,08,02,13,15,25.00
2019,08,02,13,16,25.00
2019,08,02,13,17,25.00
2019,08,02,13,18,24.90
2019,08,02,13,19,24.90
2019,08,02,13,20,24.90
2019,08,02,13,21,24.90
2019,08,02,13,22,24.80
2019,08,02,13,23,24.70
2019,08,02,13,24,24.70
2019,08,02,13,25,24.70
2019,08,02,13,26,24.70
2019,08,02,13,27,24.70
2019,08,02,13,28,24.80
2019,08,02,13,29,24.80
2019,08,02,13,30,24.80
2019,08,02,13,31,24.80
2019,08,02,13,32,24.80
2019,08,02,13,33,24.80
2019,08,02,13,34,24.80
2019,08,02,13,35,24.90
2019,08,02,13,36,24.90
2019,08,02,13,37,24.90
2019,08,02,13,38,24.90
2019,08,02,13,39,24.90
2019,08,02,13,40,24.90
2019,08,02,13,41,24.80
2019,08,02,13,42,24.80
2019,08,02,13,43,24.80
2019,08,02,13,44,24.80
2019,08,02,13,45,24.80
2019,08,02,13,46,24.80
2019,08,02,13,47,24.70
2019,08,02,13,48,24.70
2019,08,02,13,49,24.70
2019,08,02,13,50,24.70
2019,08,02,13,51,24.70
2019,08,02,13,52,24.60
2019,08,02,13,53,24.60
2019,08,02,13,54,24.70
2019,08,02,13,55,24.70
2019,08,02,13,56,24.70
2019,08,02,13,57,24.80
2019,08,02,13,58,24.80
2019,08,02,13,59,24.80
2019,08,02,14,00,24.90
2019,08,02,14,01,24.90
2019,08,02,14,02,24.90
2019,08,02,14,03,25.00
2019,08,02,14,04,25.00
2019,08,02,14,05,25.10
2019,08,02,14,06,25.10
2019,08,02,14,07,25.20
2019,08,02,14,08,25.20
2019,08,02,14,09,25.20
2019,08,02,14,10,25.20
2019,08,02,14,11,25.20
2019,08,02,14,12,25.20
2019,08,02,14,13,25.10
2019,08,02,14,14,25.10
2019,08,02,14,15,25.10
2019,08,02,14,16,25.10
2019,08,02,14,17,25.00
2019,08,02,14,18,25.00
2019,08,02,14,19,24.90
2019,08,02,14,20,24.90
2019,08,02,14,21,24.90
2019,08,02,14,22,24.90
2019,08,02,14,23,24.90
2019,08,02,14,24,24.90
2019,08,02,14,25,25.00
2019,08,02,14,26,25.00
2019,08,02,14,27,25.00
2019,08,02,14,28,25.10
2019,08,02,14,29,25.20
2019,08,02,14,30,25.20
2019,08,02,14,31,25.20
2019,08,02,14,32,25.20
2019,08,02,14,33,25.20
2019,08,02,14,34,25.20
2019,08,02,14,35,25.20
2019,08,02,14,36,25.20
2019,08,02,14,37,25.20
2019,08,02,14,38,25.20
2019,08,02,14,39,25.20
2019,08,02,14,40,25.20
2019,08,02,14,41,25.30
2019,08,02,14,42,25.30
2019,08,02,14,43,25.30
2019,08,02,14,44,25.30
2019,08,02,14,45,25.30
2019,08,02,14,46,25.30
2019,08,02,14,47,25.30
2019,08,02,14,48,25.40
2019,08,02,14,49,25.40
2019,08,02,14,50,25.40
2019,08,02,14,51,25.40
2019,08,02,14,52,25.40
2019,08,02,14,53,25.40
2019,08,02,14,54,25.40
2019,08,02,14,55,25.40
2019,08,02,14,56,25.40
2019,08,02,14,57,25.50
2019,08,02,14,58,25.50
2019,08,02,14,59,25.40
2019,08,02,15,00,25.40
2019,08,02,15,01,25.40
2019,08,02,15,02,25.40
2019,08,02,15,03,25.30
2019,08,02,15,04,25.30
2019,08,02,15,05,25.30
2019,08,02,15,06,25.20
2019,08,02,15,07,25.20
2019,08,02,15,08,25.20
2019,08,02,15,09,25.20
2019,08,02,15,10,25.30
2019,08,02,15,11,25.30
2019,08,02,15,12,25.30
2019,08,02,15,13,25.30
2019,08,02,15,14,25.40
2019,08,02,15,15,25.40
2019,08,02,15,16,25.40
2019,08,02,15,17,25.30
2019,08,02,15,18,25.40
2019,08,02,15,19,25.40
2019,08,02,15,20,25.40
2019,08,02,15,21,25.40
2019,08,02,15,22,25.40
2019,08,02,15,23,25.40
2019,08,02,15,24,25.40
2019,08,02,15,25,25.40
2019,08,02,15,26,25.40
2019,08,02,15,27,25.40
2019,08,02,15,28,25.40
2019,08,02,15,29,25.40
2019,08,02,15,30,25.40
2019,08,02,15,31,25.40
2019,08,02,15,32,25.40
2019,08,02,15,33,25.40
2019,08,02,15,34,25.40
2019,08,02,15,35,25.50
2019,08,02,15,36,25.50
2019,08,02,15,37,25.60
2019,08,02,15,38,25.60
2019,08,02,15,39,25.60
2019,08,02,15,40,25.60
2019,08,02,15,41,25.50
2019,08,02,15,42,25.50
2019,08,02,15,43,25.40
2019,08,02,15,44,25.40
2019,08,02,15,45,25.40
2019,08,02,15,46,25.30
2019,08,02,15,47,25.30
2019,08,02,15,48,25.30
2019,08,02,15,49,25.30
2019,08,02,15,50,25.30
2019,08,02,15,51,25.30
2019,08,02,15,52,25.20
2019,08,02,15,53,25.10
2019,08,02,15,54,25.10
2019,08,02,15,55,25.10
2019,08,02,15,56,25.00
2019,08,02,15,57,24.90
2019,08,02,15,58,24.80
2019,08,02,15,59,24.80
2019,08,02,16,00,24.80
2019,08,02,16,01,24.80
2019,08,02,16,02,24.80
2019,08,02,16,03,24.80
2019,08,02,16,04,24.80
2019,08,02,16,05,24.80
2019,08,02,16,06,24.90
2019,08,02,16,07,24.90
2019,08,02,16,08,24.90
2019,08,02,16,09,24.90
2019,08,02,16,10,25.00
2019,08,02,16,11,25.00
2019,08,02,16,12,25.00
2019,08,02,16,13,25.00
2019,08,02,16,14,25.00
2019,08,02,16,15,25.00
2019,08,02,16,16,25.00
2019,08,02,16,17,25.00
2019,08,02,16,18,25.00
2019,08,02,16,19,25.00
2019,08,02,16,20,25.00
2019,08,02,16,21,25.10
2019,08,02,16,22,25.10
2019,08,02,16,23,25.10
2019,08,02,16,24,25.20
2019,08,02,16,25,25.20
2019,08,02,16,26,25.20
2019,08,02,16,27,25.20
2019,08,02,16,28,25.20
2019,08,02,16,29,25.20
2019,08,02,16,30,25.30
2019,08,02,16,31,25.30
2019,08,02,16,32,25.30
2019,08,02,16,33,25.30
2019,08,02,16,34,25.30
2019,08,02,16,35,25.30
2019,08,02,16,36,25.30
2019,08,02,16,37,25.30
2019,08,02,16,38,25.20
2019,08,02,16,39,25.20
2019,08,02,16,40,25.20
2019,08,02,16,41,25.10
2019,08,02,16,42,25.10
2019,08,02,16,43,25.10
2019,08,02,16,44,25.00
2019,08,02,16,45,25.00
2019,08,02,16,46,25.00
2019,08,02,16,47,24.90
2019,08,02,16,48,24.90
2019,08,02,16,49,24.90
2019,08,02,16,50,24.80
2019,08,02,16,51,24.80
2019,08,02,16,52,24.80
2019,08,02,16,53,24.80
2019,08,02,16,54,24.80
2019,08,02,16,55,24.70
2019,08,02,16,56,24.70
2019,08,02,16,57,24.60
2019,08,02,16,58,24.60
2019,08,02,16,59,24.60
2019,08,02,17,00,24.50
2019,08,02,17,01,24.50
2019,08,02,17,02,24.50
2019,08,02,17,03,24.50
2019,08,02,17,04,24.50
2019,08,02,17,05,24.50
2019,08,02,17,06,24.50
2019,08,02,17,07,24.50
2019,08,02,17,08,24.50
2019,08,02,17,09,24.50
2019,08,02,17,10,24.50
2019,08,02,17,11,24.40
2019,08,02,17,12,24.40
2019,08,02,17,13,24.30
2019,08,02,17,14,24.30
2019,08,02,17,15,24.30
2019,08,02,17,16,24.30
2019,08,02,17,17,24.30
2019,08,02,17,18,24.30
2019,08,02,17,19,24.20